This is the latest recevied weather packets stored in our database for station/object N0NAI-13. If no packets are shown the sender has not sent any weather packets the latest 1 day(s).
| Time | Temp. | Humidity | Pressure | Rain* | Wind** | Luminosity | Snow |
|---|---|---|---|---|---|---|---|
| 1778093120 | 7.22° C | 52% | 1019 hPa | 0 mm | - | - | - |
| 1778092523 | 7.22° C | 52% | 1019 hPa | 0 mm | - | - | - |
| 1778090731 | 7.22° C | 54% | 1018.9 hPa | 0 mm | - | - | - |
| 1778090116 | 6.67° C | 53% | 1018.8 hPa | 0 mm | - | - | - |
| 1778089519 | 7.22° C | 52% | 1018.9 hPa | 0 mm | - | - | - |
| 1778088922 | 7.22° C | 53% | 1018.9 hPa | 0 mm | - | - | - |
| 1778087131 | 6.67° C | 52% | 1019.1 hPa | 0 mm | - | - | - |
| 1778085321 | 7.22° C | 53% | 1019 hPa | 0 mm | - | - | - |
| 1778081720 | 8.33° C | 50% | 1018.4 hPa | 0 mm | - | - | - |
| 1778078717 | 7.22° C | 53% | 1018.6 hPa | 0 mm | - | - | - |
| 1778078120 | 6.67° C | 54% | 1018.6 hPa | 0 mm | - | - | - |
| 1778076926 | 6.67° C | 56% | 1018.6 hPa | 0 mm | - | - | - |
| 1778075732 | 5.56° C | 60% | 1018.4 hPa | 0 mm | - | - | - |
| 1778075117 | 5° C | 60% | 1018.3 hPa | 0 mm | - | - | - |
| 1778074519 | 4.44° C | 63% | 1018.3 hPa | 0 mm | - | - | - |
| 1778073922 | 3.89° C | 63% | 1018.3 hPa | 0 mm | - | - | - |
| 1778073319 | 3.33° C | 67% | 1018.4 hPa | 0 mm | - | - | - |
| 1778072716 | 2.78° C | 73% | 1018.4 hPa | 0 mm | - | - | - |
| 1778070918 | 0.56° C | 81% | 1017.8 hPa | 0 mm | - | - | - |
| 1778066720 | -2.22° C | 87% | 1017.2 hPa | 0 mm | - | - | - |
| 1778065526 | -2.22° C | 87% | 1017.1 hPa | 0 mm | - | - | - |
| 1778064332 | -2.22° C | 85% | 1016.9 hPa | 0 mm | - | - | - |
| 1778063120 | -1.67° C | 84% | 1016.6 hPa | 0 mm | - | - | - |
| 1778062523 | -1.67° C | 83% | 1016.5 hPa | 0 mm | - | - | - |
| 1778061920 | -1.11° C | 83% | 1016.6 hPa | 0 mm | - | - | - |
* Rain latest hour (hover to see other rain measurements)
** Current wind speed in m/s (hover to see current wind gust speed)